• In Deutschland
  • Länderverzeichnis
  • Für 7 Tage
  • Wassertemperatur
  • Satellitenkarten
  • Wetterkarte
  • Widgets
  • user-avatar
    Anmelden

    Stündliche Wetter Medellín

    Heute, 19 Juli, Donnerstag

    Zeit Temperatur Niederschläge Wind Luftdruck Luftfeuchtigkeit
    00:00 +13°C° 0 mm 1 m/S 585 mmHg 83%
    01:00 +13°C° 0 mm 1 m/S 585 mmHg 83%
    02:00 +13°C° 0,1 mm 1 m/S 585 mmHg 84%
    03:00 +12°C° 0,1 mm 1 m/S 584 mmHg 84%
    04:00 +12°C° 0,1 mm 1 m/S 584 mmHg 84%
    05:00 +13°C° 0 mm 1 m/S 585 mmHg 83%
    06:00 +13°C° 0 mm 1 m/S 585 mmHg 81%
    07:00 +14°C° 0 mm 1 m/S 585 mmHg 80%
    08:00 +18°C° 0 mm 1 m/S 587 mmHg 68%
    09:00 +21°C° 0 mm 1 m/S 588 mmHg 56%
    10:00 +24°C° 0 mm 1 m/S 589 mmHg 45%
    11:00 +25°C° 0,1 mm 2 m/S 589 mmHg 42%
    12:00 +25°C° 0,1 mm 2 m/S 589 mmHg 40%
    13:00 +26°C° 0,1 mm 2 m/S 589 mmHg 37%
    14:00 +26°C° 0,2 mm 2 m/S 588 mmHg 38%
    15:00 +26°C° 0,2 mm 2 m/S 588 mmHg 39%
    16:00 +25°C° 0,2 mm 2 m/S 587 mmHg 40%
    17:00 +23°C° 0,3 mm 2 m/S 586 mmHg 49%
    18:00 +20°C° 0,3 mm 1 m/S 585 mmHg 59%
    19:00 +16°C° 0,3 mm 1 m/S 585 mmHg 68%
    20:00 +16°C° 0,2 mm 1 m/S 585 mmHg 71%
    21:00 +15°C° 0,2 mm 1 m/S 585 mmHg 75%
    22:00 +14°C° 0,2 mm 1 m/S 585 mmHg 78%
    23:00 +14°C° 0,1 mm 1 m/S 585 mmHg 79%

    Morgen, 20 Juli, Freitag

    Zeit Temperatur Niederschläge Wind Luftdruck Luftfeuchtigkeit
    00:00 +13°C° 0,1 mm 1 m/S 585 mmHg 81%
    01:00 +13°C° 0,1 mm 1 m/S 585 mmHg 82%
    02:00 +13°C° 0,1 mm 1 m/S 584 mmHg 82%
    03:00 +12°C° 0,1 mm 1 m/S 584 mmHg 82%
    04:00 +12°C° 0,1 mm 1 m/S 584 mmHg 81%
    05:00 +13°C° 0 mm 1 m/S 584 mmHg 79%
    06:00 +13°C° 0 mm 1 m/S 585 mmHg 77%
    07:00 +14°C° 0 mm 1 m/S 585 mmHg 75%
    08:00 +16°C° 0,2 mm 1 m/S 586 mmHg 69%
    09:00 +19°C° 0,2 mm 1 m/S 587 mmHg 63%
    10:00 +21°C° 0,2 mm 1 m/S 589 mmHg 57%
    11:00 +22°C° 0,2 mm 1 m/S 589 mmHg 53%
    12:00 +23°C° 0,2 mm 1 m/S 589 mmHg 50%
    13:00 +24°C° 0,2 mm 1 m/S 588 mmHg 46%
    14:00 +24°C° 0,3 mm 1 m/S 588 mmHg 48%
    15:00 +23°C° 0,3 mm 1 m/S 587 mmHg 50%
    16:00 +23°C° 0,3 mm 1 m/S 586 mmHg 53%
    17:00 +21°C° 0,3 mm 1 m/S 586 mmHg 60%
    18:00 +19°C° 0,3 mm 1 m/S 585 mmHg 68%
    19:00 +16°C° 0,3 mm 1 m/S 585 mmHg 75%
    20:00 +15°C° 0,2 mm 1 m/S 585 mmHg 78%
    21:00 +14°C° 0,2 mm 1 m/S 585 mmHg 81%
    22:00 +14°C° 0,2 mm 1 m/S 585 mmHg 85%
    23:00 +13°C° 0,1 mm 1 m/S 585 mmHg 85%

    übermorgen, 21 Juli, Samstag

    Zeit Temperatur Niederschläge Wind Luftdruck Luftfeuchtigkeit
    00:00 +13°C° 0,1 mm 1 m/S 585 mmHg 85%
    01:00 +13°C° 0,1 mm 1 m/S 585 mmHg 86%
    02:00 +13°C° 0,1 mm 1 m/S 585 mmHg 86%
    03:00 +13°C° 0,1 mm 1 m/S 584 mmHg 86%
    04:00 +13°C° 0,1 mm 1 m/S 584 mmHg 86%
    05:00 +13°C° 0,1 mm 1 m/S 584 mmHg 85%
    06:00 +13°C° 0,1 mm 1 m/S 585 mmHg 83%
    07:00 +14°C° 0,1 mm 1 m/S 585 mmHg 82%
    08:00 +16°C° 0 mm 1 m/S 586 mmHg 71%
    09:00 +20°C° 0 mm 1 m/S 588 mmHg 61%
    10:00 +23°C° 0 mm 1 m/S 589 mmHg 51%
    11:00 +24°C° 0,3 mm 1 m/S 589 mmHg 49%
    12:00 +24°C° 0,3 mm 2 m/S 588 mmHg 48%
    13:00 +25°C° 0,3 mm 2 m/S 588 mmHg 46%
    14:00 +25°C° 0,4 mm 2 m/S 588 mmHg 46%
    15:00 +25°C° 0,4 mm 2 m/S 587 mmHg 46%
    16:00 +24°C° 0,4 mm 2 m/S 586 mmHg 46%
    17:00 +21°C° 0,4 mm 2 m/S 586 mmHg 55%
    18:00 +19°C° 0,4 mm 2 m/S 585 mmHg 64%
    19:00 +16°C° 0,4 mm 1 m/S 585 mmHg 73%
    20:00 +16°C° 0,3 mm 1 m/S 585 mmHg 77%
    21:00 +15°C° 0,3 mm 1 m/S 585 mmHg 81%
    22:00 +14°C° 0,3 mm 1 m/S 585 mmHg 85%
    23:00 +14°C° 0,2 mm 1 m/S 585 mmHg 86%

    22 Juli, Sonntag

    Zeit Temperatur Niederschläge Wind Luftdruck Luftfeuchtigkeit
    00:00 +14°C° 0,2 mm 1 m/S 585 mmHg 86%
    01:00 +13°C° 0,2 mm 1 m/S 585 mmHg 86%
    02:00 +13°C° 0,1 mm 1 m/S 585 mmHg 86%
    03:00 +13°C° 0,1 mm 1 m/S 584 mmHg 86%
    04:00 +13°C° 0,1 mm 1 m/S 584 mmHg 86%
    05:00 +13°C° 0,4 mm 1 m/S 585 mmHg 85%
    06:00 +13°C° 0,4 mm 1 m/S 585 mmHg 84%
    07:00 +13°C° 0,4 mm 0 m/S 586 mmHg 83%
    08:00 +14°C° 1,2 mm 1 m/S 586 mmHg 83%
    09:00 +15°C° 1,2 mm 1 m/S 587 mmHg 83%
    10:00 +16°C° 1,2 mm 1 m/S 587 mmHg 82%
    11:00 +16°C° 1,7 mm 1 m/S 587 mmHg 83%
    12:00 +16°C° 1,7 mm 1 m/S 586 mmHg 83%
    13:00 +15°C° 1,7 mm 0 m/S 586 mmHg 83%
    14:00 +16°C° 0,9 mm 0 m/S 586 mmHg 82%
    15:00 +16°C° 0,9 mm 0 m/S 585 mmHg 81%
    16:00 +16°C° 0,9 mm 0 m/S 585 mmHg 80%
    17:00 +15°C° 0,2 mm 0 m/S 585 mmHg 83%
    18:00 +14°C° 0,2 mm 0 m/S 585 mmHg 87%
    19:00 +13°C° 0,2 mm 0 m/S 585 mmHg 90%
    20:00 +12°C° 0,1 mm 0 m/S 585 mmHg 91%
    21:00 +13°C° 0,1 mm 1 m/S 585 mmHg 92%
    22:00 +13°C° 0,1 mm 1 m/S 585 mmHg 92%
    23:00 +13°C° 0 mm 1 m/S 585 mmHg 92%

    23 Juli, Montag

    Zeit Temperatur Niederschläge Wind Luftdruck Luftfeuchtigkeit
    00:00 +12°C° 0 mm 1 m/S 585 mmHg 92%
    01:00 +12°C° 0 mm 1 m/S 585 mmHg 91%
    02:00 +12°C° 0 mm 1 m/S 584 mmHg 90%
    03:00 +12°C° 0 mm 1 m/S 584 mmHg 89%
    04:00 +11°C° 0 mm 1 m/S 584 mmHg 88%
    05:00 +12°C° 0 mm 1 m/S 584 mmHg 86%
    06:00 +12°C° 0 mm 1 m/S 585 mmHg 85%
    07:00 +13°C° 0 mm 1 m/S 585 mmHg 83%
    08:00 +16°C° 0 mm 1 m/S 587 mmHg 70%
    09:00 +20°C° 0 mm 1 m/S 588 mmHg 58%
    10:00 +23°C° 0 mm 1 m/S 590 mmHg 45%
    11:00 +24°C° 0 mm 1 m/S 589 mmHg 44%
    12:00 +25°C° 0 mm 1 m/S 589 mmHg 42%
    13:00 +26°C° 0 mm 1 m/S 589 mmHg 41%
    14:00 +25°C° 0,2 mm 2 m/S 588 mmHg 43%
    15:00 +24°C° 0,2 mm 2 m/S 588 mmHg 46%
    16:00 +23°C° 0,2 mm 2 m/S 587 mmHg 49%
    17:00 +21°C° 0,3 mm 1 m/S 586 mmHg 57%
    18:00 +19°C° 0,3 mm 1 m/S 586 mmHg 64%
    19:00 +16°C° 0,3 mm 1 m/S 586 mmHg 72%
    20:00 +15°C° 0,2 mm 1 m/S 586 mmHg 76%
    21:00 +15°C° 0,2 mm 1 m/S 586 mmHg 81%
    22:00 +14°C° 0,2 mm 1 m/S 586 mmHg 85%
    23:00 +14°C° 0,3 mm 1 m/S 586 mmHg 86%

    24 Juli, Dienstag

    Zeit Temperatur Niederschläge Wind Luftdruck Luftfeuchtigkeit
    00:00 +14°C° 0,3 mm 1 m/S 586 mmHg 86%
    01:00 +13°C° 0,3 mm 1 m/S 586 mmHg 87%
    02:00 +13°C° 0,2 mm 1 m/S 585 mmHg 87%
    03:00 +13°C° 0,2 mm 1 m/S 585 mmHg 87%
    04:00 +13°C° 0,2 mm 1 m/S 585 mmHg 87%
    05:00 +13°C° 0 mm 1 m/S 586 mmHg 86%
    06:00 +13°C° 0 mm 1 m/S 586 mmHg 85%
    07:00 +13°C° 0 mm 1 m/S 587 mmHg 84%
    08:00 +16°C° 0 mm 1 m/S 588 mmHg 73%
    09:00 +19°C° 0 mm 1 m/S 589 mmHg 62%
    10:00 +22°C° 0 mm 1 m/S 590 mmHg 51%
    11:00 +22°C° 0,1 mm 1 m/S 590 mmHg 51%
    12:00 +23°C° 0,1 mm 1 m/S 590 mmHg 50%
    13:00 +24°C° 0,1 mm 2 m/S 590 mmHg 50%
    14:00 +23°C° 0,5 mm 2 m/S 589 mmHg 54%
    15:00 +21°C° 0,5 mm 2 m/S 588 mmHg 58%
    16:00 +20°C° 0,5 mm 2 m/S 587 mmHg 62%
    17:00 +18°C° 0,3 mm 2 m/S 587 mmHg 69%
    18:00 +16°C° 0,3 mm 1 m/S 587 mmHg 76%
    19:00 +15°C° 0,3 mm 1 m/S 586 mmHg 83%
    20:00 +14°C° 0,1 mm 1 m/S 586 mmHg 84%
    21:00 +14°C° 0,1 mm 1 m/S 587 mmHg 85%
    22:00 +13°C° 0,1 mm 1 m/S 587 mmHg 87%
    23:00 +13°C° 0,1 mm 1 m/S 586 mmHg 86%
    Mehr zeigen